Printer-friendly version

IAU Minor Planet Center

Minor Planet Center

MPEC 2000-U13: 2000 TQ64

The following Minor Planet Electronic Circular may be linked-to from your own Web pages, but must not otherwise be redistributed electronically.


Read MPEC 2000-U12 Read MPEC 2000-U14


M.P.E.C. 2000-U13                                Issued 2000 Oct. 23, 16:08 UT

     The Minor Planet Electronic Circulars contain information on unusual
         minor planets and routine data on comets.  They are published
   on behalf of Commission 20 of the International Astronomical Union by the
          Minor Planet Center, Smithsonian Astrophysical Observatory,
                          Cambridge, MA 02138, U.S.A.

             Prepared using the Tamkin Foundation Computer Network

                              MPC@CFA.HARVARD.EDU
          URL http://cfa-www.harvard.edu/iau/mpc.html  ISSN 1523-6714

                                   2000 TQ64

Observations:
     K00T64Q* C2000 10 07.43821 01 53 44.65 +12 34 30.1          21.6 V      691
     K00T64Q  C2000 10 07.45959 01 53 43.02 +12 34 25.6          21.7 V      691
     K00T64Q  C2000 10 07.48084 01 53 41.41 +12 34 21.6          21.5 V      691
     K00T64Q  C2000 10 18.34526 01 39 58.42 +11 53 38.2          21.7 V      691
     K00T64Q  C2000 10 18.35090 01 39 57.97 +11 53 36.6          21.2 V      691
     K00T64Q  C2000 10 18.35641 01 39 57.52 +11 53 35.1          21.6 V      691
     K00T64Q HC2000 10 21.27825 01 36 17.09 +11 41 44.3          21.3 V      691
     K00T64Q HC2000 10 21.28270 01 36 16.67 +11 41 42.4          20.8 V      691

Observer details:
691 Steward Observatory, Kitt Peak.  Observers A. E. Gleason, J. A. Larsen,
    J. L. Montani, B. P. Zuniga.  0.9-m Spacewatch telescope.

Orbital elements:
2000 TQ64
Epoch 2000 Oct. 3.0 TT = JDT 2451820.5                  Spahr
M  99.31632              (2000.0)            P               Q
n   0.32684541     Peri.  223.89011     -0.42582554     +0.90309013
a   2.0872499      Node    21.09705     -0.78162762     -0.33615633
e   0.4068230      Incl.    8.89955     -0.45577502     -0.26725855
P   3.02           H   18.2           G   0.15
From 8 observations 2000 Oct. 7-21.

Ephemeris:
2000 TQ64                a,e,i = 2.09, 0.41, 9                   q = 1.2381
Date    TT    R. A. (2000) Decl.     Delta      r     Elong.  Phase     V
2000 10 13    01 46.77   +12 14.6    1.551    2.541   170.7     3.6    21.5
2000 10 23    01 34.15   +11 34.7    1.580    2.574   175.8     1.6    21.5
2000 11 02    01 22.55   +10 55.0    1.640    2.605   163.2     6.3    21.8
2000 11 12    01 13.05   +10 21.6    1.727    2.635   150.8    10.6    22.2
2000 11 22    01 06.29   +09 59.1    1.838    2.664   139.0    14.1    22.5
2000 12 02    01 02.46   +09 49.8    1.970    2.691   128.0    16.8    22.7

Timothy B. Spahr             (C) Copyright 2000 MPC           M.P.E.C. 2000-U13

Read MPEC 2000-U12 Read MPEC 2000-U14


Our Web policy. Index to the CBAT/MPC/ICQ pages.


Valid HTML 4.01!